Theta_e
314 314 314 314 314 314 314 314 313 313 313 314 314 314 315 315 315 315 316 317 316 316 316 316 317 317 316 316 316 316 315 312 312 312 312 317 321 329 329 328 329 325 324 312 310 312 308 310 311 314 313 311 310 307 310 309 309 308 301 298 297 300 299 303 302 303 306 303 306 307 308 306 305 311 312 316 317 316 320 323 331 338 338 339 335 345 346 346
313 314 314 313 314 314 314 313 313 313 313 313 313 314 314 315 315 315 316 317 316 316 316 316 316 316 316 316 316 315 313 312 311 312 312 320 327 326 328 331 329 327 323 310 308 310 308 308 310 313 311 308 312 306 309 305 310 303 301 300 296 300 303 306 306 307 305 304 307 307 307 307 306 313 315 311 312 313 313 318 326 330 338 341 341 343 343 343
313 313 314 314 314 313 313 313 313 313 313 313 313 314 314 314 314 315 316 317 316 316 316 316 316 316 316 316 315 315 314 311 313 312 318 326 326 327 326 329 329 328 315 308 310 311 310 310 312 312 310 306 308 304 307 304 307 305 302 298 299 303 304 307 308 306 307 306 306 307 307 307 308 309 315 310 313 314 313 317 323 326 333 336 338 341 342 343
313 313 313 313 313 314 314 313 313 313 313 313 313 313 314 314 314 315 316 316 316 316 316 316 315 316 316 316 316 315 313 312 308 313 323 330 327 326 327 328 328 328 315 311 311 311 313 313 313 312 308 305 306 307 303 304 304 306 302 299 302 305 302 305 308 308 308 307 306 306 307 306 307 308 311 313 310 313 315 319 323 323 331 334 336 339 341 341
313 313 313 313 313 313 313 313 313 313 313 313 313 313 313 313 314 314 315 315 315 316 316 316 315 315 316 316 315 315 311 305 310 317 327 329 328 327 328 328 331 318 313 311 311 312 313 311 311 309 307 303 304 304 303 305 307 306 303 304 304 305 303 306 308 307 307 308 306 306 304 305 309 308 307 309 309 311 315 319 323 329 331 333 333 337 340 339
312 313 313 313 313 313 313 313 313 313 313 313 313 313 313 313 314 314 314 315 315 315 315 315 315 315 316 316 314 314 308 296 313 318 331 329 327 328 330 332 330 315 312 310 310 311 310 309 308 305 304 303 302 300 304 305 308 300 304 305 305 305 303 307 308 308 307 306 305 304 307 308 306 306 308 308 312 313 318 318 322 330 334 334 335 337 336 337
312 313 312 312 313 313 313 313 313 313 313 313 313 313 313 313 313 313 314 314 315 315 315 315 315 315 315 315 315 312 309 308 315 323 332 330 330 332 330 330 327 315 311 309 310 310 308 306 306 304 303 302 302 302 304 305 307 304 301 305 305 306 304 307 306 308 306 305 305 307 308 305 305 302 308 307 310 316 317 321 321 332 337 336 336 338 337 338
312 312 312 312 312 312 312 312 312 312 313 313 313 313 313 313 313 313 313 314 314 314 314 314 315 315 314 313 311 309 311 311 319 323 332 329 323 324 323 313 312 311 311 310 310 308 307 304 303 305 302 300 302 301 304 303 305 302 301 305 305 307 306 307 307 307 307 306 307 307 304 305 306 305 307 306 309 313 317 319 322 327 335 336 335 337 338 338
311 312 312 312 312 312 312 312 312 313 312 312 313 313 313 313 313 313 313 313 313 314 314 314 314 314 315 312 310 306 305 315 320 324 327 321 318 317 311 309 311 309 310 312 313 310 307 304 305 305 300 301 304 302 303 301 299 303 303 305 305 305 307 307 307 307 307 307 307 304 303 305 306 308 305 307 309 312 316 317 320 323 325 326 332 336 337 337
311 311 312 312 312 312 312 312 312 312 312 313 313 313 312 312 313 312 313 312 313 313 314 314 314 314 313 311 310 303 311 321 325 324 322 319 315 314 310 312 310 309 308 311 312 309 306 306 305 307 306 304 305 302 304 302 300 306 305 305 304 305 306 307 305 306 307 306 306 303 303 303 306 305 300 308 309 311 313 315 316 323 324 327 329 333 336 336
311 311 311 312 311 312 312 312 312 312 312 312 312 312 312 312 312 313 312 312 312 313 314 313 314 314 311 313 306 302 316 316 322 323 318 318 313 311 309 312 312 309 309 311 310 310 310 308 309 308 306 302 304 302 303 303 306 305 305 305 304 305 306 306 306 306 306 304 306 305 303 304 305 305 302 306 309 310 312 312 313 323 324 325 327 331 335 335
311 311 311 311 311 311 311 312 312 312 312 312 312 312 312 311 311 312 312 312 312 313 313 314 313 313 314 311 305 306 317 316 318 320 321 317 315 314 314 315 314 312 312 310 310 311 311 310 309 306 300 307 299 303 303 307 305 305 305 300 302 303 302 305 303 305 306 303 306 306 302 300 302 300 305 307 309 309 311 311 312 320 321 323 325 329 331 332
311 311 311 311 311 311 311 311 312 312 312 311 311 311 311 311 312 311 312 313 313 313 313 314 314 314 313 305 309 317 317 317 317 318 322 319 318 318 316 317 315 314 313 311 310 312 311 310 309 304 306 305 304 298 305 306 305 305 304 301 300 300 299 303 305 305 304 305 306 305 293 296 300 303 306 308 308 308 309 309 310 316 318 322 325 324 326 331
311 311 311 311 311 311 311 311 311 311 311 311 311 311 311 311 311 311 312 312 313 313 313 313 313 314 311 307 314 318 319 319 317 315 318 320 316 315 316 316 317 315 315 312 313 314 312 311 309 307 309 305 302 309 304 304 304 299 301 302 297 295 295 302 303 304 302 306 305 305 294 296 301 303 306 308 308 307 307 309 310 313 319 320 323 323 324 329
311 311 311 311 310 310 311 311 311 311 311 311 311 311 311 311 311 312 312 313 314 314 313 314 314 312 310 311 321 323 335 319 313 312 315 317 315 313 313 315 314 314 314 314 313 314 313 310 308 304 302 308 307 304 301 300 301 300 296 293 297 294 296 301 304 303 300 303 305 303 295 296 301 303 306 308 308 308 308 309 309 311 315 321 322 324 323 328
310 310 310 310 310 310 310 310 310 310 311 311 311 311 311 311 312 312 312 312 313 314 315 312 313 313 310 306 313 331 320 310 310 313 315 317 317 313 315 313 313 313 313 312 313 313 311 309 303 304 303 306 303 300 299 298 297 299 295 294 293 295 295 297 302 304 304 303 304 301 295 298 299 304 306 307 307 307 308 309 309 311 316 321 320 323 322 328
310 310 310 310 310 310 310 310 310 310 310 310 310 311 311 311 312 312 313 313 313 315 314 312 318 317 304 314 321 312 311 314 316 312 312 315 317 315 314 311 309 309 310 311 311 310 309 305 306 305 305 301 302 299 294 293 293 295 297 293 296 294 296 294 300 304 304 302 299 302 298 299 302 304 306 307 307 306 308 309 310 311 314 321 323 321 321 333
310 310 310 310 310 310 310 310 310 310 310 310 310 310 310 311 313 312 312 311 316 316 316 318 316 311 307 317 306 307 314 314 313 312 311 315 317 315 313 309 309 307 307 305 308 304 306 302 304 298 301 300 300 298 292 289 293 293 295 294 294 296 297 296 296 301 303 302 300 300 299 299 301 303 306 306 307 307 308 309 309 310 312 319 321 323 322 328
310 310 310 310 310 309 310 310 310 310 310 310 310 312 313 312 312 314 312 314 311 310 304 307 309 295 297 306 313 311 311 314 314 312 309 312 315 316 313 311 309 305 301 301 301 302 304 301 303 298 295 297 297 298 295 295 298 297 297 297 296 294 295 296 300 304 303 300 298 299 297 298 301 302 305 309 308 308 309 311 310 310 312 316 320 323 323 323
309 309 309 309 309 309 309 309 309 309 309 308 310 311 314 312 312 312 314 313 310 309 310 308 312 310 309 309 309 313 315 314 308 310 312 315 313 311 309 307 305 305 301 297 300 301 304 296 294 294 296 299 300 300 300 300 299 300 299 299 297 296 297 301 301 303 304 301 299 300 300 300 301 302 304 308 309 308 308 309 310 310 311 313 319 322 322 325
309 309 309 309 309 309 309 309 309 309 309 309 309 306 301 301 298 298 304 306 314 313 310 308 308 310 310 312 312 311 306 307 310 309 312 317 313 309 304 304 301 298 299 301 301 304 303 296 295 299 300 301 302 303 302 301 301 299 298 298 297 298 295 301 300 304 304 303 299 301 299 300 302 303 304 307 308 307 307 308 309 309 310 315 319 320 319 322
309 309 309 309 309 309 309 309 309 309 309 309 308 303 304 305 308 310 306 298 304 307 310 312 313 309 312 311 312 314 311 305 305 308 313 315 310 303 303 300 298 295 300 301 301 299 296 294 298 301 304 304 304 305 303 301 300 300 298 298 297 297 299 302 302 304 304 302 300 301 299 300 301 303 305 305 306 309 310 310 310 310 312 317 318 318 321 323
308 308 309 308 309 309 309 309 309 308 307 306 305 306 304 307 312 312 309 303 300 306 306 304 303 306 308 313 312 313 306 304 302 306 309 312 307 304 302 298 297 298 299 300 296 297 293 296 301 303 304 303 303 303 303 302 301 299 298 296 295 298 296 294 302 302 303 302 300 301 299 301 303 305 305 306 306 310 312 312 311 311 316 317 317 318 321 322
308 308 308 308 308 308 309 309 308 309 309 305 304 304 308 311 311 309 306 299 297 302 305 307 307 306 305 306 312 309 305 305 306 304 312 310 304 305 302 299 297 297 296 299 298 297 297 301 304 303 303 302 301 302 301 299 297 300 299 297 296 297 298 298 298 302 304 304 305 301 299 298 301 300 302 307 310 311 312 312 311 312 316 318 320 321 322 319
308 308 308 308 308 309 308 308 305 309 313 312 309 311 311 312 312 312 306 301 301 302 312 309 308 309 311 316 314 306 307 307 307 309 311 310 306 303 300 304 300 296 297 300 299 298 299 305 307 302 300 302 301 299 300 300 295 296 299 299 299 299 299 299 301 299 299 297 302 299 292 292 300 300 301 304 307 308 310 310 310 312 315 317 317 317 317 319
307 308 308 308 308 308 308 306 313 308 306 304 308 310 315 314 314 315 307 298 292 300 308 301 309 303 315 308 311 308 309 301 308 309 312 312 312 305 303 300 301 295 298 299 299 300 300 305 304 301 301 301 300 299 300 300 295 293 295 300 299 299 299 299 299 299 293 291 301 304 291 289 298 299 301 303 307 308 313 313 312 315 316 319 317 315 319 318
307 307 308 308 308 308 304 300 310 306 299 303 309 314 311 311 319 314 303 295 290 302 300 303 303 304 309 308 309 309 294 298 308 310 310 313 307 310 300 299 301 302 303 304 300 296 301 301 302 302 301 299 298 296 299 299 295 292 301 301 300 298 298 299 299 298 296 301 302 301 298 291 291 297 302 304 306 308 309 311 311 315 316 316 317 317 317 318
307 307 308 308 308 307 305 307 306 302 300 305 311 311 311 312 314 315 299 282 282 304 299 302 305 313 308 310 311 303 302 307 299 304 311 312 311 306 302 299 299 299 301 300 291 302 303 300 301 300 300 298 296 299 301 301 297 297 301 303 301 299 300 300 299 298 299 297 292 297 300 292 291 298 303 304 302 304 305 307 308 313 316 316 318 319 319 319
307 307 308 307 308 307 308 306 305 304 306 308 309 310 311 313 309 302 293 282 299 299 313 302 313 309 308 310 306 306 303 307 299 304 310 313 312 308 299 301 302 301 302 301 296 300 302 301 301 301 299 296 299 301 301 301 297 301 302 304 304 302 300 301 299 297 297 294 289 295 299 291 290 298 299 302 302 302 303 306 311 315 316 318 317 318 321 321
307 307 307 307 307 309 311 309 307 312 314 311 311 313 313 308 301 293 286 279 300 292 303 303 303 302 306 302 302 304 300 303 305 306 308 307 308 309 307 308 302 300 299 301 300 301 304 307 306 302 299 300 301 302 303 302 302 304 302 300 301 301 299 299 298 297 295 288 291 296 299 295 288 295 298 299 301 304 305 309 311 313 316 319 319 319 320 322
307 307 307 307 303 308 309 303 310 316 317 315 314 312 308 302 293 287 281 291 299 297 303 302 300 305 301 299 297 302 300 302 303 305 302 307 304 305 305 301 304 299 298 299 297 299 301 302 300 302 305 303 303 301 305 305 304 302 301 298 298 297 299 297 296 297 288 285 293 297 297 298 288 295 302 305 307 306 308 307 308 312 314 318 319 320 320 321
307 307 307 306 307 309 305 300 309 311 315 316 313 306 298 287 293 284 284 303 287 295 296 298 302 302 300 302 300 299 297 300 303 302 300 300 300 298 299 295 297 290 290 293 292 298 296 297 302 302 306 302 300 299 301 302 302 300 300 298 292 290 289 286 290 286 286 285 294 297 298 294 292 299 303 306 305 306 309 310 311 311 313 317 318 319 320 320
306 306 307 307 308 308 308 309 311 313 317 315 308 303 292 285 280 289 290 295 290 299 296 302 300 301 301 300 298 300 301 296 302 302 303 302 299 300 301 300 300 296 288 294 293 293 294 299 300 300 302 304 302 295 296 296 299 298 295 294 291 286 285 282 286 288 288 293 297 297 299 292 298 301 307 308 307 309 309 311 312 315 313 317 318 319 321 322
306 307 306 310 312 312 312 316 316 318 316 313 302 295 291 283 283 296 292 293 294 300 299 298 300 301 300 296 298 301 296 299 300 300 302 299 299 297 298 300 301 298 296 296 291 293 287 289 294 298 295 303 301 300 299 299 298 297 300 296 294 292 287 283 285 283 285 288 295 298 294 291 290 296 307 310 311 311 311 312 313 314 314 317 318 320 321 323
305 307 310 313 313 316 317 316 319 318 317 308 296 291 283 283 290 289 291 294 297 298 297 301 297 298 297 298 301 302 300 296 300 300 299 297 295 296 297 297 300 300 298 291 296 293 292 292 298 302 301 302 299 302 302 300 299 299 299 299 294 292 297 288 290 289 288 288 289 292 291 296 296 306 310 311 311 311 312 312 314 313 314 315 315 317 319 319
306 316 318 316 314 316 318 316 318 317 311 301 293 285 284 289 287 294 293 300 298 295 297 298 297 294 295 296 299 298 303 297 298 299 298 298 299 297 300 300 299 299 296 291 296 290 293 291 300 301 302 301 300 302 301 302 289 299 297 292 295 304 298 291 290 295 291 288 287 293 294 297 304 305 308 309 309 308 310 311 312 312 313 313 313 316 316 317
310 314 311 315 314 317 319 318 316 314 310 301 291 284 290 292 295 295 298 297 298 299 296 290 292 292 292 292 295 296 298 300 298 297 293 299 296 299 299 301 303 301 300 299 295 298 291 292 299 299 297 301 304 303 303 302 302 297 293 296 302 305 304 294 286 288 287 284 286 292 288 292 294 290 304 305 306 308 308 310 310 311 311 312 314 314 316 317
309 311 312 310 312 315 315 315 314 311 306 297 288 290 295 291 297 296 299 298 299 299 294 292 293 296 292 292 292 295 298 295 296 296 294 298 293 305 302 301 303 303 302 303 296 300 298 289 296 299 299 301 304 303 300 303 304 299 298 304 295 289 289 294 289 284 283 282 285 288 292 292 293 294 299 301 303 306 308 309 309 309 310 311 313 315 316 314
310 310 305 310 315 316 316 317 313 306 300 292 289 287 293 294 298 297 299 299 299 297 293 295 292 295 294 292 294 296 297 293 297 296 292 296 292 304 299 301 301 303 304 303 298 301 300 289 292 299 299 301 301 299 291 296 302 303 305 299 301 298 294 288 289 291 289 284 283 285 290 287 297 300 301 301 303 305 307 308 307 309 310 311 312 313 314 314
309 306 304 313 315 317 318 317 309 303 297 289 290 290 295 293 295 297 298 298 297 296 295 294 296 293 295 294 295 293 296 296 296 297 296 300 295 302 301 305 302 302 303 306 300 301 294 300 287 296 301 300 293 298 295 296 295 296 297 296 297 298 301 297 299 291 289 286 285 285 284 291 299 305 305 305 305 306 306 307 308 310 311 312 313 315 315 316
311 304 303 314 314 317 317 311 301 296 294 296 296 293 294 293 295 297 298 299 298 302 297 296 295 293 294 293 293 297 294 296 296 295 295 297 297 292 302 301 303 301 304 301 299 303 294 293 289 294 294 293 295 300 300 299 299 297 296 294 296 294 291 287 286 296 293 289 285 285 283 293 303 308 307 306 307 307 308 308 308 310 311 312 314 315 316 316
302 297 301 314 317 314 308 298 298 300 296 292 292 295 293 299 295 296 297 299 298 297 301 297 297 295 294 294 296 295 295 294 296 296 297 295 299 299 302 304 303 302 300 295 296 305 304 299 294 290 293 295 297 301 302 302 301 300 299 297 298 298 296 292 285 289 293 293 294 292 285 289 304 306 307 307 309 310 311 311 309 311 312 313 314 315 317 317
305 298 309 312 317 311 303 296 297 295 296 297 300 298 299 296 295 296 295 298 296 299 297 296 296 295 296 296 296 295 296 293 295 293 296 297 300 301 304 302 303 301 301 301 299 302 305 293 291 293 297 300 301 302 302 302 301 298 298 300 299 295 296 294 293 295 290 291 289 288 285 291 303 307 309 310 310 310 312 312 311 312 313 313 313 315 315 315
302 301 303 310 314 311 300 288 289 291 295 298 297 296 299 297 296 295 295 297 295 296 295 296 297 298 296 298 297 294 297 289 295 295 295 298 300 303 303 303 303 300 299 298 296 303 292 296 293 288 288 291 294 297 297 300 299 296 295 299 299 300 299 299 298 299 289 291 291 287 283 290 302 307 307 309 309 309 310 311 311 310 313 314 314 315 316 316
304 306 302 304 310 309 296 297 294 292 294 294 295 294 296 296 297 297 296 296 298 297 296 295 296 298 296 297 295 297 298 294 293 297 297 296 298 303 303 303 303 300 303 305 306 304 294 294 291 285 283 282 281 283 284 286 290 295 298 298 298 297 298 295 289 292 287 291 293 289 289 296 302 306 305 306 307 308 309 310 311 312 312 312 314 316 317 316
298 289 297 299 304 302 303 302 299 295 293 293 290 294 295 294 296 297 297 296 299 298 297 297 298 298 296 295 294 294 294 297 294 294 296 295 297 300 303 303 303 302 305 307 307 303 296 298 296 293 289 288 290 292 295 296 294 291 294 296 296 300 299 299 296 290 287 290 289 292 294 295 298 301 303 304 306 305 306 308 310 310 311 313 316 316 316 316
303 293 292 290 300 301 298 301 298 298 291 295 288 295 294 294 295 296 298 294 298 298 297 296 296 294 294 294 293 293 295 294 296 294 294 296 297 300 302 303 303 305 311 306 308 301 298 291 297 296 295 295 296 295 296 296 293 294 293 293 297 297 298 299 291 289 295 291 285 294 297 296 296 300 302 303 305 306 306 307 308 309 309 311 312 312 312 312
293 296 300 300 295 290 293 292 297 295 297 297 293 297 293 293 294 292 295 297 298 299 293 295 295 296 295 293 294 290 293 293 294 291 295 297 298 299 298 303 301 305 306 303 305 300 297 291 297 296 295 296 298 297 297 294 294 294 293 294 294 295 296 293 294 297 298 290 288 295 297 295 298 301 303 303 304 304 305 307 307 308 308 309 309 310 311 312
300 300 300 303 294 297 297 297 298 296 296 296 294 295 293 293 291 294 294 295 296 297 296 289 292 294 295 296 295 292 296 290 289 295 297 298 298 297 297 298 302 304 302 301 302 304 298 293 296 297 296 296 296 297 297 295 294 293 294 294 295 295 294 294 296 296 298 296 298 298 298 297 299 301 303 305 307 306 306 308 309 308 307 308 309 308 310 309
295 296 296 301 300 297 298 297 296 295 292 296 291 293 292 292 291 294 296 295 290 294 298 295 294 296 296 297 297 295 297 298 297 292 299 298 297 298 296 298 299 301 301 299 301 303 298 292 295 297 294 294 295 296 296 295 294 292 294 294 295 295 295 295 295 295 297 296 297 296 296 295 301 304 305 306 307 306 305 303 302 303 304 303 303 305 308 309
304 305 304 297 292 294 297 297 294 293 291 293 292 293 294 294 292 296 295 298 296 294 296 294 296 297 298 297 295 295 296 298 298 298 299 298 293 299 296 298 299 299 299 298 300 300 301 293 298 296 289 289 295 295 294 294 294 293 293 294 294 293 290 294 290 293 293 292 295 293 292 292 300 304 305 306 305 304 302 301 302 302 302 302 301 301 300 300
306 308 307 301 292 294 294 295 295 293 288 292 293 293 293 293 296 296 290 296 298 298 298 297 297 299 296 294 293 294 297 298 299 299 299 300 301 300 301 300 299 298 297 300 299 298 297 294 291 291 287 287 294 295 293 293 291 287 288 292 294 294 295 294 294 296 296 296 292 289 291 298 300 302 300 300 300 299 300 301 300 301 301 301 299 298 299 300
Wind_Speed
14 14 14 14 14 13 13 12 12 12 11 12 12 13 13 13 13 13 14 14 14 14 14 14 15 14 15 15 16 15 14 13 14 13 13 20 12 4 5 5 11 12 7 7 10 11 14 14 15 14 12 10 9 11 11 13 10 9 9 9 12 11 13 10 13 10 3 6 7 7 5 2 7 8 5 3 9 8 3 10 15 18 17 13 12 20 18 16
14 14 14 14 14 14 13 13 12 12 12 12 12 12 13 13 14 13 14 14 14 15 15 14 15 14 14 15 15 16 14 13 15 16 22 17 12 17 7 7 8 11 9 11 13 14 14 14 15 14 12 10 9 10 10 9 11 10 9 11 12 11 12 15 13 8 3 6 9 9 4 6 6 7 9 7 7 11 9 11 16 13 14 15 16 16 16 13
15 15 14 14 14 14 14 13 13 12 13 12 12 12 13 13 13 13 14 14 14 14 15 15 15 14 15 15 15 13 14 14 15 20 23 20 16 10 10 8 10 11 13 14 14 14 14 13 13 13 11 10 10 11 13 11 11 12 11 11 12 14 16 17 10 7 4 3 6 3 5 8 7 8 8 5 3 7 8 10 15 13 12 13 12 13 14 11
15 15 14 14 14 14 14 14 13 12 13 12 12 12 12 13 13 13 14 14 14 14 14 15 14 15 15 15 12 12 12 14 11 3 6 9 17 14 12 10 10 12 13 15 13 14 12 13 12 13 11 11 9 13 12 11 10 9 12 12 11 13 16 18 12 12 9 6 4 6 5 8 4 7 2 4 4 5 7 9 15 15 15 13 11 12 11 12
15 15 15 15 15 15 15 15 14 14 14 13 12 12 12 12 13 13 13 13 14 14 14 14 15 15 15 14 13 11 11 9 5 9 3 10 13 13 11 10 10 11 15 14 14 14 12 13 13 12 11 10 12 11 13 14 12 9 14 15 17 16 17 14 3 11 11 1 4 2 5 7 8 1 8 7 2 1 4 2 12 18 17 16 14 11 12 10
15 15 15 15 15 15 15 15 15 14 14 13 13 12 12 12 12 13 13 13 13 14 14 14 15 15 15 12 13 10 6 1 4 5 8 9 12 10 9 8 10 12 13 13 13 12 13 14 14 12 10 11 12 13 11 15 13 13 13 15 17 19 19 15 11 3 7 6 3 7 5 13 3 6 6 10 9 8 7 5 12 17 17 16 14 13 10 11
14 15 15 15 15 15 15 15 15 15 14 14 14 12 12 12 12 12 12 13 13 13 13 13 14 15 14 15 12 9 7 11 14 5 9 10 10 8 7 7 8 10 12 13 13 12 13 14 13 12 11 12 15 14 14 14 15 13 12 14 17 17 20 14 14 6 3 7 10 9 11 7 3 9 3 7 11 11 7 15 15 17 17 18 17 15 15 13
15 15 15 15 15 16 15 15 15 15 15 14 14 13 12 12 12 12 12 12 12 13 13 13 14 14 13 11 8 7 10 12 3 11 10 12 10 9 7 8 10 10 12 14 13 13 11 14 14 12 12 11 9 14 13 16 15 15 15 15 16 15 14 16 13 10 5 6 8 9 12 6 6 10 4 9 15 6 5 7 16 19 16 16 16 14 13 14
15 15 15 15 15 15 15 15 15 15 15 15 14 13 14 13 13 12 12 13 13 12 13 13 13 12 10 8 7 10 11 5 12 10 14 15 12 11 11 9 12 12 11 12 14 11 10 11 14 12 10 13 13 15 14 14 12 14 16 14 15 17 16 11 11 12 12 7 8 10 11 8 7 10 15 6 8 7 8 9 12 18 16 14 14 13 10 10
15 15 16 15 15 16 16 16 16 16 15 15 15 15 14 14 13 12 12 12 13 13 12 12 12 11 11 7 10 10 5 5 11 13 13 14 15 12 13 9 13 13 12 12 12 13 12 9 12 12 15 15 12 14 14 16 11 9 15 18 17 16 16 12 13 10 9 11 11 11 10 12 10 8 9 10 10 7 10 8 10 16 15 13 11 11 9 9
15 15 16 16 16 16 16 16 16 16 16 16 15 15 15 14 14 13 12 12 12 12 12 11 11 11 9 8 9 11 3 11 6 11 12 12 15 13 12 12 12 12 13 11 12 12 11 13 10 8 9 9 10 13 13 13 11 17 16 8 14 16 18 17 12 12 10 12 14 10 12 12 12 12 11 8 13 13 11 10 10 16 12 13 13 10 7 8
15 14 15 15 16 16 16 16 16 16 16 16 16 15 15 15 14 13 13 12 12 12 12 10 10 7 9 10 11 14 6 5 3 5 8 12 12 13 12 13 12 12 12 12 12 10 11 11 11 10 9 7 13 11 14 14 15 14 15 11 13 13 14 19 16 11 12 11 11 12 14 14 13 14 15 14 12 15 11 10 13 17 14 13 13 11 9 8
15 15 15 15 16 16 16 17 16 17 17 16 16 16 15 15 15 15 13 12 11 10 10 10 8 6 8 10 16 20 20 17 9 4 6 9 10 10 10 12 14 11 12 12 11 9 9 10 11 13 14 12 8 8 4 7 13 13 12 12 13 13 14 17 17 15 12 10 11 10 10 10 13 15 16 14 16 16 13 12 12 12 11 12 12 10 9 8
16 15 15 15 16 16 16 16 17 17 17 18 17 16 16 15 17 16 14 13 12 11 10 10 7 7 7 11 11 14 13 8 8 7 9 9 12 12 11 11 9 9 9 12 11 7 7 10 12 12 11 12 11 10 11 10 8 12 11 11 11 10 12 14 15 15 17 10 13 11 10 9 13 16 17 14 16 16 12 13 12 13 13 11 11 9 9 10
16 16 16 16 16 16 16 17 17 18 18 18 18 17 16 17 16 15 13 13 13 10 10 8 8 6 7 11 13 22 21 11 11 9 10 12 12 11 12 10 10 10 10 10 8 8 7 10 9 10 10 11 14 13 10 9 9 8 9 12 11 13 11 15 17 20 18 14 16 15 11 11 12 15 19 17 18 13 13 12 12 10 10 11 9 9 8 7
16 16 16 16 16 16 17 17 18 18 19 19 19 18 18 18 14 12 11 11 10 9 6 8 9 10 10 14 5 3 12 14 14 13 11 12 12 12 11 10 9 10 10 8 7 6 6 7 10 9 10 11 12 10 9 9 9 9 11 10 12 13 12 13 17 19 22 16 18 18 9 10 13 14 15 20 19 19 15 14 11 12 13 13 9 8 8 8
17 17 17 17 16 17 17 17 17 18 18 19 20 20 18 15 11 9 9 10 8 8 7 5 5 11 5 2 5 10 11 13 11 12 12 13 12 13 11 10 10 10 9 9 9 8 8 9 6 9 11 11 9 10 10 10 9 9 11 11 12 14 12 13 14 17 20 18 14 18 12 11 11 16 11 19 22 19 14 13 14 12 8 12 13 13 11 10
17 17 17 17 17 17 17 17 17 19 19 20 20 21 16 12 10 10 9 7 6 7 9 10 9 7 14 17 14 11 12 11 12 11 13 12 13 13 10 9 8 10 9 10 10 11 9 9 7 9 8 10 11 10 10 11 10 8 9 10 11 14 16 14 13 16 18 20 16 16 15 14 16 15 10 3 22 17 14 12 13 13 11 11 13 12 14 12
17 18 18 17 17 17 17 17 18 19 19 21 23 26 18 12 8 8 7 5 5 4 5 8 8 7 3 1 14 11 1 4 6 9 13 14 12 12 7 7 8 10 10 9 9 13 9 8 8 8 10 10 11 12 12 15 16 10 7 11 11 11 12 13 16 13 20 18 15 15 13 14 15 16 9 4 3 8 11 10 10 10 12 10 11 12 11 11
18 18 18 18 18 18 18 18 18 19 20 16 12 9 4 5 5 4 8 10 12 12 14 5 16 12 16 15 9 6 4 8 7 9 12 13 10 12 10 10 10 11 10 9 10 12 8 9 10 10 10 12 13 14 15 18 17 14 17 14 14 12 13 12 16 10 17 13 14 14 12 12 14 14 14 14 13 12 10 8 9 8 9 11 11 11 9 8
19 18 19 19 18 18 19 19 18 17 17 11 12 9 6 7 10 5 3 8 17 19 17 18 16 17 16 13 10 10 10 10 10 9 12 11 12 10 11 11 11 10 11 13 9 8 10 10 11 12 13 14 12 11 13 15 16 13 14 16 10 13 11 9 12 11 11 6 9 12 11 14 12 13 16 12 15 13 11 9 10 9 11 10 12 12 13 10
19 19 19 19 19 19 20 19 18 18 13 10 8 7 10 13 9 9 9 12 11 14 19 21 19 18 15 17 16 12 7 8 13 11 12 13 12 12 12 13 13 11 11 13 10 8 10 11 11 14 13 12 13 10 13 14 10 9 10 11 10 8 12 6 8 10 8 6 4 7 12 12 15 14 6 15 11 11 11 10 10 8 11 10 11 10 9 9
19 19 19 19 19 20 20 22 18 13 11 8 8 12 14 15 13 9 10 11 17 17 18 17 19 20 19 14 13 11 14 12 10 13 14 13 13 15 11 12 12 12 12 13 12 10 9 11 15 14 12 13 6 4 7 5 6 9 8 8 7 8 8 6 6 10 10 7 5 8 11 8 13 9 13 16 15 10 11 11 12 10 11 9 9 8 7 10
19 20 20 20 21 21 22 22 23 15 11 14 13 15 15 14 12 11 11 9 12 17 17 16 16 16 16 15 12 15 14 11 13 14 14 14 13 13 12 13 13 12 12 14 16 12 11 12 16 13 16 13 9 8 9 6 7 8 11 11 10 10 12 8 7 11 5 3 3 7 9 11 9 10 12 8 8 7 8 10 12 11 11 11 8 6 3 14
20 20 19 20 21 23 23 24 11 8 10 11 14 16 14 11 7 7 8 10 10 14 16 15 12 14 13 13 11 13 13 12 14 12 15 15 15 11 12 10 10 12 13 15 15 15 14 10 3 15 16 9 5 8 10 9 10 9 12 14 15 16 13 12 2 4 2 7 8 7 8 9 7 13 16 8 8 10 11 11 12 9 8 9 6 6 19 14
19 20 20 20 21 22 27 9 3 12 12 10 11 10 4 4 5 7 6 6 9 9 6 11 10 9 7 12 11 10 10 13 13 12 14 15 14 13 8 11 9 12 15 14 13 8 10 9 8 5 3 4 9 10 10 11 10 10 9 14 17 18 16 14 8 8 6 6 4 9 10 4 7 14 12 10 11 10 2 5 7 5 11 11 15 15 8 11
20 20 20 19 19 19 11 3 12 16 12 5 2 4 6 6 5 6 5 6 9 7 12 6 10 0 6 9 11 9 10 11 9 14 14 16 15 11 13 10 10 10 9 8 6 9 11 7 8 10 10 10 9 9 10 12 10 10 11 13 15 16 14 12 12 9 7 5 5 6 8 9 7 8 9 14 13 11 11 8 10 8 9 11 13 11 8 7
20 20 19 20 18 13 7 11 13 11 12 10 10 10 8 7 7 5 4 4 3 5 10 8 2 4 7 9 12 11 12 7 13 15 14 17 15 13 14 12 11 12 12 8 11 4 8 9 8 8 9 9 11 10 10 13 11 9 10 10 12 13 13 12 10 8 4 4 7 8 10 9 8 6 13 15 15 14 15 14 11 9 10 10 10 8 7 3
20 20 19 20 20 22 14 9 8 12 12 12 10 9 7 8 7 5 3 5 4 5 6 7 1 7 6 11 14 14 15 7 10 13 15 15 15 10 12 15 14 12 13 11 9 7 9 10 9 9 8 9 10 11 13 12 11 13 13 9 8 9 12 11 8 9 6 4 7 7 6 8 9 5 6 10 11 12 11 12 9 14 12 13 10 9 8 5
22 20 20 18 18 12 7 9 10 16 12 10 9 8 9 6 5 5 4 7 2 7 9 3 8 10 11 11 12 16 17 9 9 12 15 12 15 16 12 9 13 12 11 13 14 10 6 10 10 10 10 10 11 12 12 12 12 10 11 12 10 10 10 10 8 7 2 6 9 9 10 12 9 8 5 5 8 8 7 8 6 10 16 13 12 9 7 6
22 20 18 16 8 6 9 9 12 16 14 7 8 9 6 5 6 5 9 5 3 8 6 8 10 9 13 15 11 14 17 13 11 12 14 13 14 15 11 11 11 10 9 9 12 15 14 2 4 4 6 10 12 10 9 11 14 9 4 8 8 8 7 7 7 7 5 6 10 13 13 12 10 2 4 1 6 5 12 11 10 11 13 14 12 9 8 7
21 20 18 12 11 9 7 7 9 12 8 8 8 5 6 6 7 10 6 3 9 7 13 9 11 10 14 14 12 13 13 15 11 13 13 12 12 13 13 10 9 8 9 10 10 11 13 11 8 10 9 15 10 8 6 7 6 10 8 8 8 6 3 6 6 7 7 5 8 12 10 5 8 3 6 8 3 7 12 10 9 9 10 13 11 11 9 5
23 20 23 15 13 10 15 16 12 9 8 6 7 5 8 6 11 10 10 7 4 5 5 6 7 12 11 13 14 13 15 14 12 13 15 15 13 14 16 15 12 11 7 8 9 9 9 12 11 10 11 11 12 8 8 10 10 10 9 8 9 8 7 5 7 4 6 10 11 8 5 6 7 7 9 10 9 8 8 7 6 7 10 12 10 9 8 5
25 21 13 8 8 11 9 9 9 6 5 5 6 6 8 9 10 7 13 12 14 4 1 5 4 9 10 11 11 11 12 15 13 12 15 12 14 11 14 18 17 14 11 5 9 9 7 11 13 11 9 11 13 12 10 7 10 12 11 10 9 7 4 3 4 4 6 5 4 9 5 2 4 5 9 11 11 9 7 9 10 11 9 11 8 6 7 8
27 22 12 9 9 11 12 11 7 5 5 5 7 9 10 11 8 10 10 11 11 16 17 4 9 9 11 11 11 13 10 10 16 14 14 14 12 12 13 13 18 15 11 9 7 6 13 10 8 16 10 13 15 14 15 13 8 11 11 10 10 4 8 4 2 1 3 5 3 2 2 1 4 11 11 11 13 13 10 12 14 11 11 11 10 7 6 6
19 6 7 6 7 8 10 8 7 5 5 6 8 9 12 9 8 9 9 9 12 13 13 13 10 9 9 9 10 13 14 12 9 13 9 14 14 14 15 11 14 18 10 8 3 8 9 9 9 14 15 13 14 12 13 11 7 4 7 11 9 8 8 2 1 4 3 3 4 3 4 7 10 8 10 12 14 12 11 13 10 10 8 7 7 8 7 6
7 7 7 6 7 7 6 7 5 5 5 7 9 10 10 10 14 14 8 13 13 13 13 13 9 10 9 10 10 13 11 14 12 10 9 7 9 15 15 14 15 17 19 9 8 7 7 6 2 7 15 15 13 13 14 13 6 7 6 6 6 4 7 1 1 0 4 6 3 8 7 7 8 4 10 9 11 13 11 11 10 8 6 5 4 5 4 1
8 7 8 8 2 4 2 3 5 5 6 8 10 12 9 13 12 16 15 17 14 14 13 10 8 11 11 11 10 11 13 12 9 12 8 9 3 8 10 11 14 13 18 17 8 2 3 8 5 11 13 14 12 10 12 14 14 9 7 5 6 2 5 6 3 4 2 5 4 7 11 9 10 5 16 15 15 15 14 12 10 7 6 3 3 2 6 5
8 7 5 2 3 1 2 4 5 7 7 9 9 9 11 15 15 15 14 15 14 14 12 10 10 7 10 10 9 11 11 10 10 8 7 6 8 3 6 8 4 10 12 13 12 5 5 6 5 9 10 4 11 9 8 9 11 12 8 5 6 7 3 3 1 5 6 6 3 6 10 2 7 6 9 15 15 17 15 15 14 11 9 10 10 11 12 13
6 3 3 3 1 3 2 4 6 7 8 11 10 11 8 13 14 18 19 17 12 11 10 12 13 13 10 13 12 9 11 15 7 6 13 3 2 2 7 12 8 7 11 11 10 11 3 6 3 3 9 10 8 7 9 8 8 8 10 8 9 5 4 5 2 6 5 2 4 2 4 5 6 8 9 13 13 16 14 14 13 13 13 13 12 10 10 10
7 7 1 2 1 3 4 4 7 9 10 9 13 13 13 12 11 13 17 20 15 10 10 9 11 11 8 11 14 11 7 8 8 3 4 4 1 2 4 3 9 8 13 13 7 2 3 5 5 4 7 9 8 6 7 11 9 8 7 9 8 6 8 10 7 7 7 3 1 3 0 1 7 4 9 10 10 10 11 14 12 13 11 10 7 9 9 7
6 6 3 3 4 4 5 7 6 7 8 11 10 10 11 10 14 15 15 15 15 9 6 12 14 13 11 14 10 8 9 10 3 7 3 1 7 5 4 3 4 13 9 4 4 4 3 3 8 6 7 6 10 11 13 14 12 14 10 8 11 9 8 1 5 1 6 8 6 3 2 1 5 8 9 10 10 9 9 10 12 11 10 9 9 9 8 8
6 2 6 1 4 6 6 7 8 6 9 9 13 16 16 13 11 11 13 9 10 9 10 10 13 12 12 10 9 9 8 7 11 3 9 8 7 11 4 5 6 9 9 2 11 3 1 1 2 7 5 5 10 11 10 13 13 10 9 9 1 8 6 6 4 7 1 3 5 2 2 3 7 4 9 9 12 11 6 8 12 10 8 8 8 8 10 9
8 5 1 4 2 2 6 5 5 4 8 8 10 15 13 13 14 10 10 7 7 6 9 9 13 15 10 7 7 8 6 5 3 7 6 8 6 1 4 6 2 4 4 0 5 3 3 2 6 3 4 6 6 6 7 10 9 7 8 7 7 8 10 2 4 3 3 6 6 0 2 2 5 4 8 8 10 10 10 7 7 8 6 5 7 7 7 8
8 6 2 4 7 3 2 3 7 5 5 11 12 10 10 8 8 9 6 8 10 11 7 9 14 9 8 9 13 12 9 8 5 5 7 2 3 3 7 5 8 7 9 9 6 6 3 3 5 7 7 6 4 5 1 2 7 8 12 16 13 11 5 4 2 4 4 3 8 2 3 5 4 10 9 9 8 7 8 8 7 5 6 4 5 5 7 7
5 3 5 3 6 5 4 5 5 7 5 7 8 7 9 8 5 8 8 9 6 8 8 8 11 10 9 9 11 10 9 11 10 4 4 5 3 6 6 8 11 11 4 4 5 2 3 5 5 5 7 4 4 4 6 1 5 9 14 15 22 14 9 5 2 4 2 1 4 7 2 8 8 10 10 8 6 6 7 7 5 4 4 6 3 4 5 4
7 3 5 5 2 1 8 5 7 5 3 10 1 8 5 5 3 3 4 5 3 7 6 7 7 6 6 10 8 10 10 11 10 11 10 9 5 4 4 8 12 5 15 10 8 4 4 3 5 5 8 12 3 7 5 4 6 9 12 12 13 17 20 9 2 0 2 5 2 2 6 6 6 6 7 8 8 8 6 6 6 7 10 7 6 5 7 5
3 5 5 2 4 6 8 7 10 5 9 10 5 9 12 10 4 1 1 5 4 3 7 4 8 8 8 9 8 6 7 10 11 7 5 6 2 1 7 4 0 6 5 6 7 7 5 3 6 7 9 10 5 5 5 6 3 6 11 11 11 16 16 15 10 7 6 2 3 10 12 9 8 8 8 8 8 6 9 10 8 9 10 12 12 8 7 4
5 1 3 3 2 6 8 7 8 8 7 7 5 13 11 10 9 0 3 2 7 8 5 5 7 10 9 9 10 2 6 4 4 3 6 6 7 4 8 6 6 3 6 6 6 4 3 3 5 7 6 6 5 5 3 5 3 3 5 9 8 8 13 13 11 13 9 11 11 10 12 11 8 8 7 8 10 11 9 9 9 11 12 11 8 7 8 10
6 6 4 4 5 6 7 6 7 7 6 7 3 9 4 10 9 8 8 5 2 7 5 4 7 9 7 15 14 8 7 4 7 4 6 7 4 6 3 5 4 8 7 5 5 5 6 1 4 1 5 5 5 6 5 8 9 8 7 5 6 5 6 8 9 13 10 10 9 8 9 9 6 8 13 10 10 13 12 14 14 12 12 12 13 12 9 9
6 4 3 6 4 7 6 7 6 7 5 8 7 8 8 10 10 11 10 12 8 7 8 9 6 10 7 8 10 9 9 7 8 5 7 5 4 1 2 5 4 3 5 4 5 3 5 1 4 3 3 2 2 5 2 1 3 5 7 9 4 1 3 3 5 7 7 4 8 9 5 5 6 8 10 10 11 15 13 12 11 11 13 14 14 14 14 13
7 6 7 5 3 3 3 6 7 5 6 6 6 8 8 10 10 10 2 8 11 11 11 10 9 5 6 8 9 10 9 8 7 7 6 7 6 6 5 4 6 4 3 7 7 2 3 0 2 3 3 2 5 3 6 5 2 3 6 9 5 3 7 9 8 8 8 6 4 4 6 7 9 10 12 13 14 15 13 10 10 12 14 14 16 15 14 14
Wind_Direction
350 350 349 347 345 345 344 339 333 325 318 311 307 304 303 301 301 300 300 301 303 304 306 307 310 312 313 314 315 317 315 300 297 280 252 242 246 98 99 109 163 171 157 227 234 220 196 210 219 221 223 229 221 236 240 228 237 228 229 240 248 253 247 249 254 273 349 273 98 42 50 284 274 163 204 151 228 258 130 104 69 59 59 38 101 115 126 138
350 349 347 346 345 344 343 341 336 330 322 313 308 306 304 303 301 298 299 299 301 303 307 309 309 312 315 315 317 316 314 295 288 276 252 250 216 216 154 132 151 168 177 220 219 211 202 205 214 212 221 223 218 231 222 233 215 232 228 232 242 239 252 258 262 280 224 357 74 41 12 299 287 356 96 246 202 212 204 142 87 80 61 76 90 111 125 127
348 347 345 344 344 343 342 339 338 336 328 321 314 308 302 299 298 299 298 300 301 302 303 306 309 311 313 316 314 310 298 296 281 265 260 234 224 169 159 148 170 167 193 205 214 215 210 205 210 212 213 234 210 228 210 233 206 222 250 232 236 248 255 255 285 15 20 29 26 231 127 233 77 240 101 257 249 239 205 151 112 116 117 101 106 115 126 132
347 344 344 344 343 342 341 339 337 337 333 324 316 309 305 301 297 297 300 302 301 303 304 304 306 309 312 313 317 314 296 293 273 228 32 174 170 159 160 158 178 183 206 222 219 224 217 222 212 212 216 226 227 226 217 223 224 196 228 244 245 236 249 255 254 261 261 338 338 278 92 258 198 249 7 134 227 218 241 183 142 136 128 125 120 133 135 149
345 344 342 343 344 341 340 339 337 336 335 329 320 312 307 303 300 298 300 302 302 301 304 305 304 307 313 312 314 298 300 284 84 65 70 121 143 153 157 166 174 196 205 220 241 241 225 225 219 211 229 221 239 224 230 226 221 236 227 234 250 256 250 254 335 1 347 221 288 302 259 256 49 61 267 254 173 118 275 90 132 138 137 140 143 149 146 157
345 344 343 342 342 342 339 338 336 333 334 331 325 316 311 305 301 301 300 300 300 301 302 305 306 308 310 319 303 290 281 354 54 131 131 133 141 146 155 161 182 206 205 227 236 240 225 223 227 216 213 239 228 234 212 237 206 231 242 242 242 254 268 287 326 204 229 299 275 269 267 276 211 272 234 275 175 192 200 158 131 120 137 141 139 142 148 162
345 344 343 342 341 339 339 335 335 333 331 330 327 321 315 308 304 300 299 299 300 301 302 304 307 309 317 302 272 260 248 271 293 125 127 140 140 133 141 173 175 209 213 220 232 240 218 227 222 224 222 228 241 246 243 217 224 239 243 241 243 250 255 265 264 46 86 253 270 263 261 283 6 248 172 255 268 167 152 110 137 123 133 136 142 155 160 175
346 344 343 341 339 339 337 335 333 332 331 328 328 325 317 311 306 303 299 299 299 299 302 302 306 310 322 312 295 238 233 257 220 133 147 130 147 142 152 183 186 200 219 227 234 233 220 227 227 229 237 231 223 240 248 248 223 230 238 246 261 254 250 257 255 256 218 223 244 256 260 228 254 262 237 209 257 117 149 141 126 136 144 139 143 160 165 171
347 344 342 340 339 337 335 334 332 332 329 328 325 325 321 313 309 305 302 297 296 299 299 301 302 309 305 285 284 297 275 251 130 150 153 147 153 161 170 176 194 201 215 229 240 238 227 223 236 231 234 228 244 249 235 244 234 228 250 241 245 259 264 258 237 228 236 243 230 240 242 253 232 247 264 274 232 165 144 182 145 145 147 144 148 156 170 170
347 344 341 339 337 335 333 333 332 329 329 325 325 323 322 316 308 304 300 297 296 297 298 298 299 306 293 269 277 267 270 125 136 146 166 157 150 162 190 195 181 204 216 225 233 235 223 229 231 223 249 266 253 235 250 241 261 244 232 244 248 252 255 249 256 254 246 241 242 237 233 232 225 235 241 236 262 190 142 186 175 142 145 145 150 151 164 173
346 343 341 337 335 333 333 332 331 329 326 325 322 320 318 317 309 302 298 295 293 291 293 295 296 295 281 265 270 265 24 294 128 156 172 162 159 168 195 213 182 207 221 226 235 228 238 246 240 253 236 249 252 267 264 262 249 251 257 257 239 245 257 264 236 233 245 231 230 237 242 239 227 217 245 207 219 245 155 193 187 135 144 151 148 146 156 184
344 342 340 335 333 332 331 331 330 328 324 322 319 316 315 313 309 301 295 293 290 286 285 288 290 283 273 269 257 246 265 285 11 221 182 173 179 187 198 210 191 213 218 234 226 234 237 247 253 255 255 178 247 270 265 263 263 256 251 237 255 262 251 243 247 227 220 242 213 218 241 235 224 231 217 234 229 226 175 200 211 146 149 151 148 152 170 191
341 339 337 335 333 331 330 329 328 325 323 319 317 313 311 307 305 298 291 288 282 279 278 278 279 260 275 277 245 246 253 264 247 238 167 202 197 202 213 215 205 216 232 244 245 216 245 255 253 257 253 273 296 238 357 301 246 249 255 266 259 252 252 241 235 234 237 227 232 190 233 227 231 232 233 208 235 239 185 208 208 144 156 152 149 157 173 188
340 337 335 333 332 330 329 328 325 323 321 318 314 312 307 306 301 295 284 276 282 282 284 284 279 271 260 256 269 268 262 229 242 214 226 198 215 202 217 220 230 228 240 253 260 280 231 237 254 264 280 263 241 250 259 244 259 235 235 238 246 256 249 234 232 216 229 219 221 204 232 230 225 222 228 207 225 235 181 204 208 171 162 153 144 162 179 176
337 336 333 331 331 329 328 326 325 321 319 316 312 309 306 298 297 289 280 275 264 263 265 265 245 260 230 258 254 252 255 254 246 218 218 210 211 213 210 217 227 232 236 240 262 264 253 241 240 245 246 248 269 282 280 260 226 236 242 231 234 243 246 251 218 214 218 209 217 212 230 240 241 214 212 204 211 211 185 206 201 193 162 146 154 162 183 178
335 334 332 330 329 329 326 325 323 321 317 314 311 307 301 293 290 285 276 267 271 303 261 240 224 229 285 282 308 80 197 216 224 228 213 226 205 226 195 212 226 232 233 236 245 260 263 228 227 237 245 239 246 245 253 244 228 222 232 245 238 227 243 247 238 208 206 218 201 215 228 216 243 269 243 204 208 200 194 204 209 198 154 154 178 166 193 165
333 332 331 330 329 327 326 324 322 321 318 313 311 299 291 292 283 293 269 252 254 230 229 244 222 196 259 3 321 226 218 214 230 208 214 214 211 226 203 200 214 223 214 235 224 242 228 237 215 242 243 255 232 225 243 242 237 222 211 237 244 244 223 235 243 210 189 211 207 195 224 234 254 237 268 226 199 186 185 205 213 192 173 163 139 201 188 160
332 331 331 329 328 327 324 323 322 321 319 314 309 296 283 273 291 292 245 245 231 222 224 243 281 289 249 250 268 252 220 221 199 201 206 195 223 216 225 193 208 222 197 223 213 233 201 223 215 236 218 230 246 225 226 233 229 226 206 222 235 245 248 242 236 190 188 186 229 184 208 228 245 249 313 74 171 163 185 203 220 193 175 179 176 193 178 178
331 330 329 330 326 325 324 321 321 322 320 317 294 278 265 261 256 239 248 186 194 189 219 191 199 195 357 95 228 262 36 123 153 206 191 199 199 233 204 224 212 208 205 219 186 222 180 229 212 232 231 211 225 228 219 237 230 222 259 226 229 240 231 235 250 177 180 178 210 220 198 211 237 257 221 171 110 196 189 188 244 195 169 193 191 180 181 188
330 329 329 328 327 322 322 321 319 320 325 320 324 314 244 239 197 192 216 217 224 238 275 261 194 242 276 270 255 218 166 108 219 205 192 196 192 212 216 203 206 215 214 216 181 207 186 214 215 218 228 224 221 234 238 237 250 310 297 294 228 232 243 230 243 185 176 189 198 225 216 211 217 236 243 166 187 204 230 203 232 188 182 198 194 187 187 194
328 328 327 327 324 322 318 320 317 315 321 312 304 292 278 302 328 333 314 242 220 229 248 262 246 238 254 269 254 209 179 185 234 199 224 164 213 203 201 204 207 207 215 218 210 183 220 221 226 226 225 238 225 222 250 266 277 292 303 289 252 212 252 230 236 148 162 217 180 198 233 232 239 213 231 210 177 195 202 211 240 205 193 199 198 193 199 198
329 327 326 326 322 321 317 314 314 311 306 292 271 266 272 274 318 326 311 299 285 261 243 244 251 257 257 258 268 294 179 232 187 217 204 172 198 216 168 206 201 213 203 218 215 183 212 228 230 234 232 233 240 227 230 243 270 299 269 283 290 237 227 210 227 138 144 194 240 205 212 237 234 239 210 253 201 175 189 208 238 221 200 199 207 210 184 181
328 327 325 324 322 319 319 310 310 309 298 257 241 243 253 268 285 319 314 291 279 268 263 251 246 245 244 242 241 219 248 224 218 195 196 181 194 217 181 199 206 216 203 210 218 198 212 220 233 233 238 238 239 341 317 328 281 260 269 262 272 276 250 218 161 120 122 183 214 236 256 243 239 222 226 235 228 160 187 200 228 217 190 198 226 219 192 191
328 326 324 323 322 320 316 317 304 286 233 228 246 254 266 281 298 306 307 290 294 287 261 250 240 237 232 231 202 226 216 225 240 199 181 179 215 203 224 196 214 214 215 203 224 218 215 230 206 221 233 231 223 222 242 259 263 251 258 261 258 261 254 245 189 174 160 184 185 270 260 244 219 225 242 218 118 168 197 218 228 218 189 202 206 225 15 49
325 325 324 322 323 322 319 315 299 234 222 216 239 250 252 259 266 315 307 287 250 255 252 246 235 230 230 204 211 209 195 238 231 227 171 186 211 197 224 198 229 209 225 205 215 236 241 254 321 200 220 195 193 234 227 240 247 253 238 248 263 269 288 273 175 266 210 255 205 213 246 250 227 228 229 172 187 200 206 211 210 204 203 184 173 47 66 89
325 324 324 322 324 326 313 292 296 335 311 271 259 273 243 279 340 352 312 268 280 283 182 225 161 202 210 191 192 205 199 225 217 233 172 188 216 218 194 230 200 219 214 225 213 230 246 226 203 247 224 161 215 230 234 216 245 247 230 220 244 259 274 284 255 170 225 226 285 210 238 230 222 229 219 193 185 180 95 228 191 128 44 33 66 80 80 94
324 323 322 322 323 331 327 325 346 313 287 298 59 25 314 307 17 318 266 239 274 227 219 85 182 292 267 171 181 166 215 212 198 229 183 174 211 212 238 215 189 250 237 222 223 212 227 210 194 218 219 227 233 232 225 223 226 239 253 221 220 237 247 256 268 238 236 259 174 253 224 254 224 215 209 211 183 186 200 198 220 108 86 65 75 94 114 167
323 321 319 318 317 315 284 307 309 294 272 329 337 347 311 1 339 264 252 322 265 148 188 147 316 114 236 160 184 195 228 153 190 200 210 162 214 195 235 228 217 210 230 241 232 173 206 196 182 223 223 232 232 229 229 215 227 242 236 269 229 224 226 239 246 256 235 207 253 215 232 238 245 204 209 212 200 193 199 196 195 113 103 108 101 114 158 215
320 319 317 315 312 292 266 246 273 275 290 313 317 315 326 341 292 272 257 247 3 292 22 198 83 185 213 171 194 215 227 214 206 166 192 168 199 229 205 242 257 233 211 225 250 236 197 245 206 199 219 229 236 227 229 210 223 234 265 275 272 222 234 233 239 245 221 214 249 237 259 256 237 193 221 205 208 193 195 179 137 127 119 121 123 136 147 148
317 316 314 315 313 281 217 221 238 253 278 293 305 325 318 286 259 235 215 257 121 244 182 107 191 183 204 185 201 204 224 221 234 158 179 184 183 225 243 232 238 250 235 204 236 248 241 191 248 220 212 231 228 228 230 214 225 242 222 236 249 239 218 228 246 251 278 245 240 241 197 245 245 195 201 170 191 161 161 123 146 146 138 132 139 148 153 151
314 311 310 310 285 302 320 267 238 240 244 288 340 315 294 250 240 227 228 239 262 264 157 146 203 178 194 204 202 198 221 220 207 172 176 186 193 205 222 223 234 246 251 237 210 235 247 194 269 267 234 229 236 257 242 234 203 203 221 233 238 232 229 243 226 232 230 232 242 234 220 213 253 118 108 270 5 253 150 166 180 167 149 139 142 149 156 158
310 305 301 294 267 288 266 252 11 333 353 339 326 279 220 229 221 225 242 173 267 190 216 180 210 201 199 204 223 189 206 215 205 182 191 185 197 196 204 230 176 223 231 221 219 213 237 231 194 220 235 249 219 235 229 258 240 206 206 228 240 221 203 225 217 222 220 241 227 244 221 141 248 112 129 84 95 133 146 167 168 168 160 138 145 146 157 182
307 304 298 276 252 234 238 256 296 298 315 306 294 250 221 229 229 217 241 246 271 355 150 253 205 206 200 198 222 202 197 223 197 195 205 185 213 196 206 222 190 207 227 198 243 198 218 242 215 207 222 219 255 210 214 207 210 234 228 220 229 227 212 230 224 229 239 226 232 235 258 254 108 99 78 84 97 119 125 128 137 124 105 130 144 142 137 133
303 302 295 269 238 221 241 252 252 279 305 284 245 230 237 230 235 229 239 228 259 299 197 235 243 228 212 223 213 217 194 220 208 198 202 196 203 206 205 211 228 196 236 234 218 216 226 198 222 212 209 190 221 236 231 225 189 220 236 231 229 242 238 229 244 234 260 240 282 228 215 167 156 100 99 87 84 83 79 80 66 73 69 93 117 114 129 110
303 292 260 256 240 239 233 247 257 256 264 247 229 227 219 231 241 237 228 243 238 265 272 241 253 215 224 235 228 216 235 202 216 205 200 219 196 221 202 206 215 233 197 242 199 251 233 242 209 200 228 185 210 221 249 263 242 202 218 236 240 223 122 195 187 9 351 310 284 226 168 16 112 142 125 120 111 109 111 65 55 53 62 94 118 126 104 93
301 266 191 226 214 213 213 214 230 243 258 241 229 221 228 220 227 220 256 248 258 264 265 244 234 246 241 225 212 243 193 265 184 228 218 216 219 213 213 208 211 212 225 212 200 226 223 238 233 183 211 215 199 216 227 235 248 334 239 219 231 156 204 172 165 230 37 296 259 79 317 91 124 143 148 138 121 108 89 90 81 71 92 123 124 127 145 152
298 296 227 226 227 194 165 207 202 208 248 251 234 235 232 240 242 261 251 253 262 255 251 259 223 235 240 227 231 209 214 199 221 225 214 232 241 227 215 217 210 204 223 226 212 221 265 247 226 322 203 219 211 199 237 220 205 152 257 253 290 305 101 124 226 237 230 244 226 168 199 190 165 173 164 153 131 117 110 109 98 83 48 62 45 98 120 110
299 289 297 271 184 85 218 256 226 226 247 241 241 253 251 250 240 250 271 274 270 265 273 250 282 237 231 246 229 218 212 229 192 213 249 199 249 330 306 237 207 229 207 213 249 75 306 279 277 266 269 205 206 221 219 236 226 219 214 340 301 44 265 197 187 180 221 261 241 211 193 221 211 194 164 173 146 131 120 113 109 120 132 110 70 61 80 69
269 271 268 87 36 65 314 251 222 229 226 237 240 240 241 263 273 265 256 259 269 281 267 265 271 252 258 257 260 233 229 219 209 191 220 201 233 34 355 313 318 305 302 224 214 165 172 276 236 242 259 198 192 200 241 220 224 244 174 197 271 257 231 290 278 272 189 225 252 225 227 197 18 9 187 173 173 136 132 132 138 144 158 169 177 179 169 178
258 268 241 56 267 45 287 208 220 223 231 235 234 243 252 249 247 261 267 271 263 255 243 277 250 256 243 256 245 244 218 243 209 199 228 79 307 356 6 328 316 280 265 284 267 183 162 167 282 278 307 294 237 193 226 227 230 218 226 214 200 216 188 222 233 261 254 255 247 260 237 61 32 29 77 83 103 133 148 145 139 149 154 158 162 157 152 155
299 285 300 69 19 115 162 204 216 219 231 239 247 260 250 249 250 242 256 261 268 246 279 266 275 257 269 275 257 236 252 237 226 126 249 128 273 173 154 5 343 326 265 267 300 328 169 160 228 255 242 239 252 239 234 236 242 246 237 229 227 198 217 204 223 183 251 248 210 260 280 62 36 17 81 104 106 119 135 134 141 138 146 145 137 144 142 139
288 301 93 136 148 209 246 245 238 246 248 246 249 242 245 260 273 276 262 235 243 260 234 272 283 299 295 284 263 262 254 260 175 159 22 105 284 287 191 339 31 325 279 194 263 343 351 193 204 232 236 251 276 293 342 315 274 247 235 234 232 241 245 222 261 252 264 239 244 178 109 90 20 28 65 98 95 86 107 120 121 130 138 145 143 144 131 131
254 329 95 201 137 250 246 264 266 248 242 262 279 265 269 254 248 258 268 269 273 253 242 243 262 254 257 299 312 268 291 289 265 198 187 215 173 216 87 352 334 321 324 123 215 41 349 265 227 227 248 303 269 317 307 289 310 293 255 279 268 255 281 266 270 126 276 342 303 257 191 77 15 18 100 86 104 116 120 120 120 123 131 145 140 138 123 125
327 343 136 139 253 268 315 310 301 315 321 308 286 280 267 293 300 260 261 288 268 269 274 271 255 251 266 262 278 275 245 285 335 289 130 192 175 166 154 208 11 295 296 218 244 117 227 201 274 255 261 246 248 274 285 313 315 318 313 272 235 211 223 261 359 121 273 238 248 135 205 114 63 316 98 102 110 122 113 92 110 127 137 135 141 128 118 122
299 251 293 53 53 342 311 195 309 306 314 307 293 278 257 258 270 280 289 310 301 255 244 249 265 263 253 236 258 246 250 267 273 240 99 11 81 183 159 189 154 227 266 334 317 116 214 192 191 241 240 230 238 235 213 334 331 322 348 330 274 259 257 79 263 37 281 343 300 242 151 111 54 44 87 101 78 61 89 128 130 132 139 157 133 124 125 122
304 338 6 17 23 10 313 10 341 309 297 277 256 243 286 263 260 312 303 260 303 315 273 299 307 308 286 295 285 256 244 242 255 266 246 98 251 193 170 190 176 197 219 315 268 162 256 238 212 233 256 256 205 131 126 121 351 356 338 8 1 316 277 279 13 207 210 18 26 335 29 127 101 86 91 74 103 99 75 69 86 113 108 139 113 128 118 100
286 27 4 352 345 8 344 9 335 347 357 262 342 314 237 225 295 234 5 258 297 287 290 269 276 263 278 266 267 283 266 267 237 238 248 175 306 86 224 222 190 160 148 183 210 213 236 257 237 256 255 264 162 170 118 62 25 356 360 2 359 9 16 355 230 215 275 153 153 50 81 88 80 81 86 92 65 49 48 32 22 17 8 2 16 19 64 51
333 55 15 68 315 353 344 1 353 3 4 3 360 0 356 339 274 166 296 266 248 265 300 276 261 256 256 252 258 256 266 266 278 289 301 18 193 116 230 105 297 123 206 211 194 235 225 230 209 207 239 258 231 140 155 105 88 8 353 346 14 15 21 16 2 21 12 329 133 118 124 110 104 94 80 85 83 61 38 43 53 61 41 39 22 0 30 23
6 13 73 326 358 22 2 354 348 12 23 15 38 25 346 38 337 71 349 15 30 331 336 311 282 277 278 273 245 272 17 327 302 339 44 353 39 348 349 183 169 136 215 241 188 193 231 230 260 197 243 232 213 197 175 171 145 239 329 329 336 4 18 2 18 14 71 92 105 108 98 103 109 117 104 88 78 75 61 49 46 50 40 33 44 49 38 33
31 341 30 315 74 44 22 11 2 11 37 15 41 27 21 10 354 36 55 58 47 337 17 300 2 340 4 29 27 54 50 31 348 11 14 349 360 359 171 246 247 206 196 204 222 69 253 161 330 191 244 240 204 191 216 234 201 202 209 295 326 12 7 5 20 24 61 69 63 61 79 89 85 90 107 119 107 95 77 67 55 59 65 61 53 32 39 59
330 18 340 321 355 40 35 28 24 25 30 18 11 8 14 18 356 331 42 16 38 28 5 358 18 325 32 28 31 23 12 2 351 2 350 2 331 173 240 315 320 257 215 41 323 347 292 36 281 250 251 229 203 182 165 161 273 253 229 213 225 8 38 2 48 14 41 73 125 119 110 91 99 104 100 105 100 86 85 82 74 72 66 63 59 58 48 40
338 353 318 308 311 105 22 48 52 34 40 24 346 7 3 4 16 351 22 3 16 25 10 18 13 298 51 19 12 358 339 322 322 329 321 323 281 285 281 284 297 347 3 143 201 168 264 51 231 227 242 237 150 171 141 107 71 273 253 232 192 149 114 95 83 59 27 346 38 107 90 91 89 89 79 65 61 61 60 69 87 73 69 58 57 49 44 42